This demonstration page uses our WeatherBlox Daily Observations layout. Learn more.

40.92945, -100.16068

Hourly Observations for January 6, 2020

Temp ( °F °C ) Dew Point ( °F °C ) Humidity (%) Winds ( mph kmh ) Pressure ( in mb ) Visibility ( mi km ) Precip ( " mm )
12:15 am 00:15 Mostly Cloudy 27 -2.7 24 -4.3 89 89 Calm 30.33 1027 10 16.0934 0 0
12:35 am 00:35 Mostly Cloudy 27 -2.8 25 -4 92 92 Calm 30.32 1027 10 16.0934 0 0
12:55 am 00:55 Cloudy 26 -3.3 25 -4.1 94 94 E 5 7 30.31 1026 10 16.0934 0 0
1:15 am 01:15 Cloudy 27 -3 25 -4.1 92 92 ENE 3 6 30.31 1026 10 16.0934 0 0
1:35 am 01:35 Cloudy 27 -2.8 25 -4 92 92 Calm 30.3 1026 10 16.0934 0 0
1:55 am 01:55 Cloudy 27 -2.7 24 -4.3 89 89 SE 5 7 30.28 1026 10 16.0934 0 0
2:15 am 02:15 Cloudy 28 -2.2 24 -4.7 83 83 SE 5 7 30.27 1025 10 16.0934 0 0
2:35 am 02:35 Cloudy 28 -2.5 24 -4.5 86 86 ESE 5 7 30.25 1024 10 16.0934 0 0
2:55 am 02:55 Cloudy 29 -1.9 24 -4.5 83 83 ESE 3 6 30.25 1024 10 16.0934 0 0
3:15 am 03:15 Cloudy 28 -2 24 -4.5 83 83 SE 3 6 30.25 1024 10 16.0934 0 0
3:35 am 03:35 Cloudy 28 -2 24 -4.2 85 85 S 3 6 30.25 1024 10 16.0934 0 0
3:55 am 03:55 Cloudy 28 -2.2 25 -3.9 88 88 SSW 5 7 30.25 1024 10 16.0934 0 0
4:15 am 04:15 Cloudy 29 -1.7 25 -3.8 86 86 Calm 30.23 1024 10 16.0934 0 0
4:35 am 04:35 Mostly Cloudy 30 -1.1 24 -4.5 78 78 S 6 9 30.23 1024 10 16.0934 0 0
4:55 am 04:55 Mostly Cloudy 31 -0.7 23 -4.8 74 74 SW 3 6 30.22 1024 10 16.0934 0 0
5:15 am 05:15 Cloudy 31 -0.8 24 -4.5 76 76 SW 15 24 30.23 1024 10 16.0934 0 0
5:35 am 05:35 Cloudy 31 -0.8 23 -4.9 74 74 SSW 14 22 30.23 1024 10 16.0934 0 0
5:55 am 05:55 Cloudy 31 -0.6 23 -4.8 74 74 SW 15 24 30.22 1023 10 16.0934 0 0
6:15 am 06:15 Mostly Cloudy 30 -0.9 23 -5 74 74 SW 15 24 30.24 1024 10 16.0934 0 0
6:35 am 06:35 Partly Cloudy 29 -1.6 23 -5.2 77 77 SW 10 17 30.24 1024 10 16.0934 0 0
6:55 am 06:55 Clear 28 -2.1 22 -5.5 78 78 SW 10 17 30.25 1024 10 16.0934 0 0
7:15 am 07:15 Clear 28 -2 22 -5.7 76 76 SW 10 17 30.24 1024 10 16.0934 0 0
7:35 am 07:35 Clear 29 -1.7 21 -6 73 73 SW 12 19 30.22 1024 10 16.0934 0 0
7:55 am 07:55 Clear 29 -1.6 21 -6 72 72 SW 16 26 30.21 1023 10 16.0934 0 0
8:15 am 08:15 Sunny 29 -1.5 21 -6 72 72 SW 16 26 30.2 1023 10 16.0934 0 0
8:35 am 08:35 Sunny 29 -1.5 22 -5.8 73 73 SW 13 20 30.2 1023 10 16.0934 0 0
8:55 am 08:55 Sunny 30 -1.2 22 -5.6 72 72 SW 10 17 30.21 1023 10 16.0934 0 0
9:15 am 09:15 Sunny 31 -0.8 22 -5.4 71 71 WSW 9 15 30.21 1023 10 16.0934 0 0
9:35 am 09:35 Sunny 31 -0.4 23 -5.1 71 71 WSW 9 15 30.2 1023 10 16.0934 0 0
9:55 am 09:55 Sunny 32 0.1 23 -4.9 69 69 W 13 20 30.2 1023 10 16.0934 0 0
10:15 am 10:15 Sunny 34 1.1 25 -4 69 69 W 18 30 30.19 1022 10 16.0934 0 0
10:35 am 10:35 Sunny 35 1.8 25 -4.1 65 65 WNW 21 33 30.19 1022 10 16.0934 0 0
10:55 am 10:55 Sunny 36 2 25 -3.8 66 66 WNW 22 35 30.19 1022 10 16.0934 0 0
11:15 am 11:15 Sunny 36 2.1 25 -3.7 66 66 WNW 21 33 30.19 1022 10 16.0934 0 0
11:35 am 11:35 Sunny 36 2.4 26 -3.5 65 65 WNW 23 37 30.18 1022 10 16.0934 0 0
11:55 am 11:55 Sunny 37 2.7 26 -3.4 65 65 WNW 20 31 30.18 1022 10 16.0934 0 0
12:15 pm 12:15 Sunny 37 3 26 -3.4 63 63 WNW 20 31 30.18 1022 10 16.0934 0 0
12:35 pm 12:35 Sunny 38 3.4 26 -3.4 61 61 WNW 17 28 30.16 1021 10 16.0934 0 0
12:55 pm 12:55 Sunny 39 3.8 27 -3 62 62 WNW 18 30 30.15 1021 10 16.0934 0 0
1:15 pm 13:15 Sunny 40 4.2 26 -3.1 59 59 WNW 16 26 30.13 1020 10 16.0934 0 0
1:35 pm 13:35 Sunny 40 4.5 27 -2.6 60 60 WNW 15 24 30.12 1020 10 16.0934 0 0
1:55 pm 13:55 Sunny 41 5 27 -2.7 58 58 WNW 17 28 30.12 1020 10 16.0934 0 0
2:15 pm 14:15 Sunny 42 5.3 27 -3 55 55 NW 16 26 30.12 1020 10 16.0934 0 0
2:35 pm 14:35 Sunny 42 5.5 26 -3.1 54 54 NW 15 24 30.11 1020 10 16.0934 0 0
2:55 pm 14:55 Sunny 42 5.5 28 -2.3 58 58 NW 12 19 30.11 1020 10 16.0934 0 0
3:15 pm 15:15 Sunny 42 5.8 26 -3.4 52 52 WNW 14 22 30.12 1020 10 16.0934 0 0
3:35 pm 15:35 Sunny 42 5.6 26 -3.1 54 54 WNW 13 20 30.13 1020 10 16.0934 0 0
3:55 pm 15:55 Sunny 42 5.5 26 -3.1 54 54 WNW 12 19 30.14 1021 10 16.0934 0 0
4:15 pm 16:15 Sunny 41 5.2 26 -3.2 55 55 WNW 10 17 30.15 1021 10 16.0934 0 0
4:35 pm 16:35 Sunny 41 5 25 -3.8 53 53 NW 16 26 30.17 1022 10 16.0934 0 0
4:55 pm 16:55 Sunny 39 4.1 26 -3.6 58 58 NW 14 22 30.19 1022 10 16.0934 0 0
5:15 pm 17:15 Sunny 38 3.2 26 -3.5 62 62 WNW 13 20 30.21 1023 10 16.0934 0 0
5:35 pm 17:35 Clear 35 1.7 26 -3.1 71 71 WNW 9 15 30.23 1024 10 16.0934 0 0
5:55 pm 17:55 Clear 34 1.1 27 -3 74 74 WNW 9 15 30.24 1024 10 16.0934 0 0
6:15 pm 18:15 Clear 33 0.5 26 -3.1 77 77 WNW 10 17 30.24 1024 10 16.0934 0 0
6:35 pm 18:35 Clear 33 0.6 26 -3.5 74 74 WNW 12 19 30.24 1024 10 16.0934 0 0
6:55 pm 18:55 Clear 33 0.5 25 -4.1 72 72 WNW 10 17 30.24 1024 10 16.0934 0 0
7:15 pm 19:15 Clear 34 1.2 23 -4.9 64 64 WNW 13 20 30.25 1024 10 16.0934 0 0
7:35 pm 19:35 Clear 35 1.4 22 -5.5 60 60 WNW 17 28 30.24 1024 10 16.0934 0 0
7:55 pm 19:55 Clear 34 1.2 22 -5.8 60 60 WNW 18 30 30.26 1025 10 16.0934 0 0
8:15 pm 20:15 Clear 34 1 22 -5.7 61 61 WNW 14 22 30.26 1025 10 16.0934 0 0
8:35 pm 20:35 Clear 33 0.6 22 -5.7 63 63 NW 12 19 30.26 1025 10 16.0934 0 0
8:55 pm 20:55 Clear 32 0 22 -5.6 66 66 NW 12 19 30.27 1025 10 16.0934 0 0
9:15 pm 21:15 Clear 32 0 22 -5.7 66 66 WNW 13 20 30.27 1025 10 16.0934 0 0
9:35 pm 21:35 Clear 32 0 21 -5.9 65 65 NW 12 19 30.27 1025 10 16.0934 0 0
9:55 pm 21:55 Clear 30 -1.1 22 -5.6 72 72 NW 9 15 30.29 1026 10 16.0934 0 0
10:15 pm 22:15 Clear 29 -1.4 22 -5.8 72 72 NW 10 17 30.29 1026 10 16.0934 0 0
10:35 pm 22:35 Clear 28 -2.4 22 -5.7 78 78 WNW 7 11 30.3 1026 10 16.0934 0 0
10:55 pm 22:55 Clear 27 -2.7 22 -5.8 79 79 WNW 8 13 30.3 1026 10 16.0934 0 0
11:15 pm 23:15 Clear 28 -2.3 22 -5.8 77 77 WNW 10 17 30.32 1027 10 16.0934 0 0
11:35 pm 23:35 Clear 28 -2.5 21 -6.1 77 77 WNW 7 11 30.31 1027 10 16.0934 0 0
11:55 pm 23:55 Clear 27 -2.8 21 -6 79 79 W 8 13 30.33 1027 10 16.0934 0 0

Powered by AerisWeather